Hourly Data Report for September 19, 2017

All times are specified in Local Standard Time (LST). Add 1 hour to adjust for Daylight Saving Time where and when it is observed.

ST. PETERS
PRINCE EDWARD ISLAND

46°27'01.000" N
62°34'33.000" W
29.70 m
8300562
71310
ZSP

Download Data

Hourly Data (September 2017)
Hourly Data Report for September 19, 2017
Temp Definition
°C
Dew Point Temp Definition
°C
Rel Hum Definition
%
Wind Dir Definition
10's deg

Wind Spd Definition
km/h
Visibility Definition
km
Stn Press Definition
kPa
Hmdx Definition


Wind Chill Definition


Weather Definition


TIME
00:00 17.4 16.3 93 16 8   102.27     LegendNANA
01:00 17.2 15.9 92 17 9   102.29     LegendNANA
02:00 17.2 15.8 92 18 12   102.24     LegendNANA
03:00 17.1 15.3 89 18 12   102.23     LegendNANA
04:00 16.7 15.4 92 17 10   102.24     LegendNANA
05:00 16.5 15.4 94 16 10   102.23     LegendNANA
06:00 16.5 15.5 94 17 12   102.26     LegendNANA
07:00 16.9 15.7 93 17 12   102.27     LegendNANA
08:00 17.4 15.9 91 17 9   102.27     LegendNANA
09:00 17.6 16.2 91 18 6   102.29     LegendNANA
10:00 17.5 16.3 93 15 2   102.28     LegendNANA
11:00 17.8 16.7 94 14 4   102.24     LegendNANA
12:00 17.7 16.7 94 16 6   102.20     LegendNANA
13:00
14:00
15:00
16:00
17:00 19.3 18.2 93 16 7   101.94     LegendNANA
18:00 19.0 18.0 94 14 6   101.93     LegendNANA
19:00 18.5 17.6 95 14 7   101.92     LegendNANA
20:00 18.9 17.8 94 16 12   101.93     LegendNANA
21:00 19.3 18.1 93 16 13   101.93     LegendNANA
22:00 19.4 18.2 93 16 10   101.92     LegendNANA
23:00 19.3 18.2 93 16 11   101.88     LegendNANA

Notes on Data Quality.

Legend

  • E = Estimated
  • M = Missing
  • NA = Not Available
  • ‡ = Partner data that is not subject to review by the National Climate Archives
Date modified: